Dewpoint
16 12 10 13 15 15 15 18 19 18 18 17 16 11 7 6 4 2 5 2 -1 5 9 10 7 0 2 5 5 3 7 7 9 16 30 31 37 38 41 44 43 47 59 63 64 64 64 66 67 67 66 67 68 67 67 66 66 65 64 65 65 67 68 67 67 66 66 66 66 66 66 66 68 65 67 69 69 68 68 67 68 68 69 68 69 69
14 12 9 9 13 15 15 17 19 18 16 16 15 10 5 5 3 5 6 3 -4 7 7 9 5 3 3 5 5 6 7 4 8 17 28 30 32 36 38 43 43 52 58 63 63 64 64 65 67 66 66 67 68 67 66 65 65 65 66 66 65 67 67 67 67 67 67 67 65 66 65 66 65 65 66 68 69 69 68 68 68 69 68 67 68 68
9 10 9 8 11 16 16 17 17 16 14 15 16 11 7 7 7 5 2 -1 -4 -3 3 5 5 5 5 4 4 8 6 8 10 15 25 26 27 35 39 40 45 52 58 61 62 63 62 66 66 66 66 67 67 67 66 66 66 66 66 66 65 66 66 67 68 67 66 67 68 67 66 66 65 67 68 69 68 68 68 68 68 68 68 68 68 68
10 7 7 8 10 15 15 15 17 16 16 15 15 15 7 8 8 6 3 -2 -3 -3 -1 6 6 8 10 10 9 8 6 12 23 36 34 27 26 31 36 38 44 51 60 60 61 62 62 64 65 66 67 67 67 66 66 65 65 65 65 65 66 66 67 67 67 67 68 68 69 69 67 67 66 67 67 68 69 69 68 68 68 68 68 68 67 66
4 7 7 7 8 14 15 16 17 15 15 15 15 14 12 6 5 5 2 -1 -5 -4 -6 4 10 9 9 8 4 8 13 18 26 38 34 34 35 31 36 38 46 50 60 60 61 61 63 64 64 65 66 68 67 66 66 66 65 65 65 65 65 66 66 66 67 67 68 68 68 68 67 66 66 66 66 67 66 67 69 67 67 67 67 67 67 67
7 7 9 9 7 12 15 16 17 16 13 12 13 13 12 7 5 6 2 -3 -2 0 -5 4 8 9 11 8 4 5 9 12 16 26 23 27 35 36 34 36 45 56 60 60 62 61 63 64 64 65 66 67 67 66 66 66 65 65 65 65 65 65 66 66 67 68 68 67 67 67 66 63 64 64 66 65 65 65 66 66 67 67 66 66 66 67
9 9 10 12 11 12 16 16 17 15 14 13 12 14 14 12 7 5 2 -2 -2 -0 -4 4 8 10 9 7 8 8 8 10 14 24 23 30 34 35 36 38 44 60 62 63 62 63 62 63 64 65 66 67 67 67 67 67 67 67 65 66 66 66 66 66 67 68 67 67 67 67 65 65 64 65 65 67 67 67 66 66 65 66 66 65 66 65
13 13 10 12 13 12 15 16 16 16 14 12 15 15 14 13 8 3 3 1 -4 3 -1 4 7 8 4 5 8 6 9 9 10 11 23 30 35 34 33 36 45 57 57 61 61 61 63 63 64 64 66 67 67 67 67 68 69 67 67 67 66 66 65 66 67 67 68 67 67 66 66 66 65 65 65 66 66 66 65 65 65 65 65 65 64 65
15 15 11 12 15 14 15 17 16 14 12 12 13 11 11 12 11 6 2 2 -2 -0 2 5 7 8 6 6 6 6 6 9 9 10 18 25 32 35 35 37 50 55 57 60 60 62 61 63 64 65 66 67 67 67 68 68 68 68 67 67 68 67 66 66 67 67 68 68 67 66 64 65 65 66 66 65 65 65 64 64 64 64 64 65 64 63
17 17 13 12 17 15 16 18 17 16 13 14 16 17 15 12 3 6 5 0 -0 4 9 5 5 6 3 4 5 8 6 9 11 11 15 24 31 32 34 40 47 54 56 59 60 60 62 62 64 66 67 67 67 67 67 68 68 67 67 67 68 67 67 67 68 68 68 67 67 66 64 64 64 65 64 63 63 63 64 63 63 63 63 63 64 64
19 24 20 10 16 19 16 17 18 14 13 11 12 10 6 4 11 13 15 6 5 9 7 2 1 2 3 2 5 11 12 10 12 13 16 23 30 32 36 41 42 50 51 51 59 61 62 63 64 66 66 66 66 66 66 66 66 66 66 67 66 67 67 68 68 67 67 66 66 65 64 64 63 64 63 63 62 62 63 62 62 62 62 62 62 63
13 17 24 14 18 21 20 15 17 15 14 13 10 9 8 11 13 17 13 5 6 6 3 1 1 2 3 2 1 13 12 9 12 13 15 21 29 32 38 40 41 52 52 53 58 60 62 62 65 65 65 66 65 65 66 66 65 66 66 66 66 66 67 67 67 66 65 65 65 67 66 64 64 64 63 62 62 63 62 62 62 62 62 62 62 64
20 19 27 19 24 22 20 19 15 14 13 11 12 11 12 13 13 10 7 10 7 3 2 -0 0 -0 1 7 5 3 9 10 11 8 12 19 29 36 37 41 41 51 49 57 59 61 62 61 63 64 65 65 64 64 65 65 65 65 65 65 65 65 66 66 66 65 65 65 65 66 66 65 65 65 64 63 62 62 62 62 61 61 60 60 60 60
18 18 20 21 23 25 24 23 20 13 11 9 10 12 11 10 9 13 7 8 8 2 -1 -0 1 -0 4 3 5 5 11 11 12 19 17 22 35 38 38 41 42 49 48 56 59 60 60 61 63 63 64 64 64 64 64 64 64 65 65 65 64 64 66 66 66 65 64 65 66 66 66 65 65 64 64 63 62 62 61 62 62 61 61 61 60 59
17 19 22 23 23 25 23 22 15 13 12 11 12 10 12 10 9 13 4 7 6 1 -0 -1 -0 5 1 6 7 11 10 12 11 11 23 31 35 40 37 38 42 45 49 55 57 59 60 62 63 64 64 64 64 64 64 64 63 64 64 64 64 64 65 66 65 65 64 65 66 65 66 65 65 64 63 62 62 62 62 62 61 61 62 62 61 59
17 17 20 24 25 25 24 23 23 25 14 12 12 11 10 11 11 7 9 6 7 6 7 6 10 6 8 11 13 11 8 8 15 14 23 33 37 37 38 41 42 46 50 53 58 59 62 63 63 64 64 64 64 64 64 63 64 64 64 64 64 64 64 65 64 64 64 66 65 65 66 66 65 64 64 63 63 63 62 61 60 60 60 60 59 58
19 18 18 22 25 24 25 26 23 22 17 12 11 11 10 10 7 15 19 18 23 13 9 11 9 8 8 13 10 10 9 6 11 11 17 30 35 39 41 43 44 46 53 55 58 59 61 63 64 64 64 64 64 64 64 64 64 65 65 64 63 64 64 64 64 64 65 65 65 65 66 66 64 64 64 64 63 63 62 61 61 61 60 60 58 58
20 18 18 20 22 23 23 25 21 20 20 13 12 11 12 11 9 15 9 14 13 9 13 7 3 3 1 10 19 10 10 19 20 21 22 32 35 38 43 45 45 49 53 55 57 58 61 62 64 64 64 63 64 64 64 64 65 66 65 63 62 63 64 64 64 65 65 65 65 65 65 65 64 64 63 63 62 62 61 61 60 59 58 57 57 56
24 20 19 17 19 21 23 25 21 21 22 13 10 11 9 16 11 11 16 14 11 12 8 4 1 2 0 12 16 14 12 26 28 25 24 27 33 37 42 42 48 51 52 52 55 59 60 60 63 64 64 63 64 64 64 64 65 65 63 63 63 63 64 64 65 65 65 65 65 65 63 63 63 62 62 62 61 60 60 59 60 58 57 56 56 55
25 23 17 17 17 27 26 21 19 19 18 12 11 9 10 12 14 11 16 11 10 9 13 4 2 8 6 12 16 14 15 24 25 27 26 24 29 38 41 43 47 53 56 57 59 60 60 62 63 63 63 63 63 63 64 64 64 64 63 63 63 64 64 64 65 65 65 65 65 64 63 63 62 61 61 61 60 59 58 58 58 57 56 56 56 55
26 29 20 15 16 19 17 22 18 19 16 10 7 9 8 18 10 9 14 6 8 12 9 10 10 13 16 8 14 13 17 26 30 32 33 31 33 38 40 45 50 54 57 58 59 59 59 62 64 63 63 63 63 63 64 65 63 63 63 63 63 64 64 65 65 65 65 65 64 64 63 63 62 61 61 60 60 59 58 57 57 56 56 55 55 55
27 31 25 18 17 17 18 18 18 17 12 9 8 9 7 8 12 9 12 6 7 10 14 11 12 16 13 12 16 18 30 29 29 31 32 32 34 38 43 48 52 57 58 59 59 59 59 61 64 63 62 63 63 63 64 63 63 63 62 63 62 63 63 64 65 65 65 64 64 63 63 62 61 61 60 59 59 58 57 56 56 56 55 55 55 54
33 33 31 23 18 21 18 19 20 18 15 9 8 8 7 12 12 10 14 12 9 7 6 10 14 17 22 31 25 26 25 20 28 30 30 31 35 38 45 50 54 57 58 58 60 60 60 61 63 62 62 62 62 62 62 62 63 62 63 63 62 63 63 63 64 64 64 64 63 63 63 62 61 60 60 59 58 57 56 56 56 55 55 55 54 54
38 30 27 18 16 17 19 18 18 19 14 8 8 8 8 10 13 14 17 18 13 13 8 9 15 16 23 36 32 33 27 26 29 29 31 34 38 42 46 51 54 55 55 57 59 60 60 61 63 63 62 62 62 62 62 62 63 61 63 63 62 62 63 64 64 64 64 63 63 62 62 61 61 60 60 59 58 57 56 56 55 54 54 53 53 52
26 31 27 20 18 17 19 18 18 18 15 10 10 10 8 10 13 16 17 23 16 11 8 11 11 13 29 33 32 28 24 23 23 24 30 35 45 51 51 51 51 53 58 60 60 60 60 60 62 62 62 62 62 62 62 62 62 61 62 63 62 62 63 63 64 64 63 63 63 62 61 61 60 60 59 58 57 57 56 56 55 55 53 53 52 51
29 33 27 19 18 18 17 16 16 18 14 15 9 6 7 10 15 20 21 18 17 18 6 12 10 20 29 29 23 26 25 26 29 31 31 39 43 49 51 51 50 52 56 59 60 60 60 59 61 62 62 62 62 61 61 62 62 62 62 62 63 62 62 63 63 63 62 62 62 61 61 60 60 59 58 57 57 56 56 55 55 54 53 51 51 51
30 34 33 26 21 18 20 21 18 16 13 12 8 7 7 9 11 21 30 23 15 22 16 16 18 21 23 21 21 24 29 27 33 36 35 36 41 47 49 50 50 51 56 58 59 60 59 59 59 61 62 62 62 62 61 61 62 62 62 63 63 62 63 64 63 62 61 61 61 60 60 60 59 59 57 57 56 56 55 55 55 53 51 51 51 50
28 23 27 27 25 19 20 20 18 16 12 12 9 8 6 9 15 29 23 20 23 19 23 27 27 26 22 21 22 26 27 31 33 33 33 39 43 47 49 50 50 50 56 58 58 59 59 59 60 61 62 62 62 62 62 61 62 62 62 62 62 63 63 63 62 62 61 61 60 60 60 59 59 58 57 56 56 55 55 55 54 53 52 52 51 50
35 28 27 27 27 26 33 19 18 15 11 11 10 11 11 9 16 33 24 20 28 25 23 30 32 30 22 25 26 24 29 34 30 33 36 43 48 49 49 47 48 50 54 57 57 58 58 59 59 61 62 62 62 62 62 62 61 62 63 63 63 63 62 62 61 61 60 60 60 60 59 59 58 57 56 55 55 55 55 54 54 53 52 52 51 51
37 30 31 29 26 25 25 18 16 14 9 8 11 11 12 13 16 20 23 22 23 34 30 31 34 34 32 43 44 42 41 43 37 39 45 44 45 46 46 48 48 49 54 56 56 57 58 58 60 60 62 62 62 62 62 61 61 61 63 63 63 62 62 61 61 61 60 60 60 59 59 58 57 56 55 55 55 55 55 54 54 53 52 51 50 50
35 29 32 29 25 24 25 26 16 13 11 12 9 9 9 11 11 14 27 33 29 28 32 33 33 34 37 43 45 46 49 33 39 37 45 47 45 45 45 46 48 48 53 56 57 57 57 58 60 60 61 62 62 62 62 62 62 62 63 63 62 62 61 60 60 60 60 60 59 59 58 57 56 55 54 54 54 54 54 53 53 53 51 51 50 50
36 29 28 28 24 24 25 24 23 18 13 14 15 13 10 14 21 23 29 34 28 27 29 33 31 33 37 43 45 45 46 40 36 41 43 47 48 49 46 45 49 50 53 55 56 57 57 57 60 61 61 62 62 62 61 61 62 62 62 62 61 61 61 60 60 60 60 59 59 59 57 56 55 55 54 54 53 53 53 53 53 52 51 51 50 50
39 33 30 30 23 22 25 25 24 18 16 15 21 17 15 18 15 18 20 33 31 30 27 26 34 35 42 45 45 45 46 46 39 39 43 41 41 41 42 45 45 48 49 54 57 56 57 58 60 62 62 62 62 61 61 62 62 61 62 61 61 60 60 60 60 60 60 59 58 58 58 57 55 54 54 53 53 52 53 52 52 51 51 50 50 50
38 38 33 35 23 21 22 22 24 23 16 16 22 23 17 21 17 20 28 34 28 31 29 31 36 35 37 39 43 46 47 49 45 45 43 43 44 44 43 44 45 46 50 56 56 56 57 59 61 62 62 62 62 62 62 62 62 62 62 61 60 60 60 60 59 59 59 59 58 57 57 56 55 54 53 53 53 52 52 52 51 51 51 51 50 49
36 38 32 36 27 21 23 22 18 17 17 23 23 17 15 17 12 13 22 18 21 21 28 28 30 33 37 40 41 45 49 49 49 49 45 41 46 46 48 48 48 49 54 56 56 56 58 61 62 62 62 61 62 62 62 61 61 62 61 61 60 60 60 59 59 60 59 58 58 57 56 56 55 54 53 52 52 52 52 52 52 51 51 50 49 49
30 32 32 29 26 25 20 19 17 16 22 25 25 26 26 18 18 22 21 18 18 22 23 25 25 31 39 37 41 43 50 49 53 50 53 51 48 51 51 52 53 54 54 55 57 59 61 61 62 61 61 61 62 61 61 61 61 61 61 61 60 60 60 59 59 58 58 57 57 56 56 55 54 54 53 52 52 52 52 52 53 52 52 50 50 49
31 41 32 29 29 24 20 18 18 27 23 24 27 23 18 19 19 20 22 18 24 23 23 23 23 24 34 38 42 44 46 47 50 51 53 52 53 52 54 54 55 56 58 59 60 61 62 62 61 61 61 61 61 61 61 61 61 61 60 60 59 59 60 59 58 57 57 57 56 55 55 54 53 52 52 52 51 51 52 52 53 52 51 49 49 48
31 36 37 33 28 27 17 16 25 25 20 23 26 25 28 34 29 30 22 17 30 23 24 22 27 29 35 39 44 46 46 48 47 51 56 52 53 55 51 53 57 58 60 61 61 62 62 61 61 61 61 60 60 60 61 61 60 60 59 59 58 58 58 58 58 57 56 56 55 55 54 53 52 52 51 51 51 51 52 52 52 52 50 49 49 48
31 32 32 30 26 24 22 21 20 22 20 22 25 23 28 26 28 37 20 13 21 24 21 26 28 31 36 43 41 48 47 49 45 48 52 56 55 57 54 55 58 59 60 61 61 60 61 61 61 60 60 60 60 60 61 61 60 59 58 58 57 57 56 55 55 55 55 55 55 55 54 53 52 52 51 51 51 52 52 52 51 51 51 50 49 48
34 33 31 30 29 28 21 23 20 26 22 28 26 24 17 21 32 26 13 16 29 25 29 30 30 30 38 44 48 50 45 41 45 50 53 53 55 56 55 57 58 59 60 61 61 61 61 60 59 59 59 59 60 60 60 60 59 59 58 58 57 57 55 55 55 54 55 55 56 56 54 53 52 52 52 51 52 52 52 52 51 51 50 50 48 47
35 33 33 29 25 26 27 32 32 33 38 44 30 25 19 37 29 19 14 25 44 32 31 35 32 36 46 46 47 46 50 51 48 53 56 54 54 56 56 59 59 59 59 60 60 57 60 59 59 59 59 60 59 59 59 59 59 58 58 58 57 56 55 55 54 54 54 54 54 54 53 53 53 53 53 52 52 52 52 52 51 50 49 49 49 49
33 31 26 27 25 23 29 28 30 34 39 42 42 28 32 32 24 19 37 46 46 38 36 32 36 42 45 46 48 49 52 51 54 55 56 56 56 57 55 57 60 59 59 59 58 59 60 59 59 59 59 59 59 59 59 59 58 58 58 58 57 56 56 55 54 53 52 52 53 53 53 53 53 54 55 55 55 53 53 52 51 51 52 50 48 48
36 29 28 22 31 30 27 28 29 29 33 41 43 30 31 27 32 42 47 47 45 41 37 40 47 49 50 51 52 52 52 53 55 55 56 56 56 57 57 56 59 59 59 59 59 58 58 58 59 58 59 58 58 58 58 58 57 57 57 57 57 57 57 55 54 53 52 52 52 52 54 54 54 54 54 54 52 51 50 49 48 48 48 47 46 45
42 33 31 35 41 30 24 24 28 37 36 41 39 28 39 44 46 48 48 46 44 44 43 45 48 49 51 51 51 52 54 54 55 56 56 56 56 58 60 59 59 59 60 59 59 58 58 58 58 59 58 58 58 58 58 58 57 57 57 57 57 56 54 52 53 53 53 52 52 53 54 53 54 54 53 53 51 50 49 48 47 47 47 46 45 44
40 41 40 37 43 38 34 39 44 48 51 48 51 45 48 46 48 48 48 48 49 47 54 50 49 52 53 52 52 53 54 55 58 56 57 58 58 58 58 60 59 59 58 58 58 57 57 57 58 59 58 58 57 57 57 58 57 56 56 57 56 54 52 52 51 52 51 51 51 52 51 51 51 51 52 52 50 49 48 48 47 46 45 45 44 43
42 44 44 43 42 46 46 45 48 48 48 45 47 45 44 46 48 50 50 51 51 52 52 53 54 52 54 54 52 51 54 56 57 57 57 57 57 56 56 59 60 59 58 57 57 57 57 57 58 58 57 57 57 57 57 58 57 56 57 57 56 55 52 52 51 51 50 50 50 50 50 50 50 50 50 50 49 49 48 48 47 46 45 44 43 43
43 44 40 39 43 39 37 47 45 47 45 43 43 43 46 49 49 48 49 49 51 52 53 54 54 52 52 53 53 51 53 55 56 56 56 57 56 57 57 58 59 59 57 56 57 56 57 57 57 57 57 57 57 58 58 58 56 57 57 56 54 54 53 52 52 51 50 50 50 50 50 49 49 49 49 49 48 49 48 48 47 46 44 43 42 41
38 41 42 39 42 41 39 45 47 49 45 46 50 43 44 45 48 49 48 49 50 53 53 52 51 50 51 52 52 53 52 54 54 54 56 56 55 57 57 56 59 57 58 57 58 58 57 58 57 57 57 57 57 58 57 57 56 57 57 55 53 53 53 52 52 50 50 49 49 48 48 48 43 46 47 46 46 45 45 44 43 41 40 39 39 38
41 39 36 43 43 44 42 44 47 48 46 46 48 49 47 47 45 45 44 45 49 49 49 49 48 46 48 51 53 52 51 51 52 54 55 55 56 57 58 57 59 58 58 57 58 57 57 57 56 56 56 57 57 58 57 57 57 56 57 56 54 54 53 52 50 50 48 47 47 47 47 47 46 46 45 45 44 44 43 42 41 41 41 41 40 42
40 40 43 44 35 37 41 45 47 39 39 45 45 47 48 48 46 48 47 46 44 45 47 48 48 50 47 49 50 49 49 49 50 51 52 57 57 57 57 57 58 59 57 57 58 58 57 57 57 57 56 57 57 57 57 57 57 57 55 55 54 53 53 52 51 49 48 47 47 47 46 46 46 46 45 44 43 43 43 35 38 43 43 42 39 38
41 44 45 38 37 38 45 46 48 48 49 49 47 46 46 46 47 45 45 47 47 47 44 46 47 46 46 46 47 48 48 48 50 52 53 52 57 58 58 58 58 57 57 57 58 59 58 58 57 57 56 56 56 56 57 57 56 57 56 55 54 53 52 51 50 49 48 48 47 46 46 46 46 46 45 44 44 44 41 40 38 35 35 37 36 35